Location: Besigheim
(48.9980°N, 9.1427°E)
Time: 17:25:06
(UTC+00:00)

SL-24 R/B - RUBIN 2 - Pass Details

Date: 24 February 2026
Orbit: 603 x 984 km, 64.6° (Epoch: 8 March)

Event Time Altitude Azimuth Distance (km) Brightness Sun altitude
Exits shadow 05:10:52 - 324° (NW) 2,670 6.5 -11.3°
Reaches altitude 10° 05:13:24 10° 345° (NNW) 1,966 6.0 -10.9°
Maximum altitude 05:15:54 15° 20° (NNE) 1,669 6.0 -10.5°
Drops below altitude 10° 05:18:22 10° 55° (NE) 1,958 7.0 -10.1°
Sets 05:21:35 0° 80° (E) 2,881 8.8 -9.6°
